| time (UTC) | temp F | wind direction | speed MPH | gust MPH | rain 1hr in | rain 24hr in | rain mn in | humidity % | barometer mb |
| 20260904181616 | 81 | 277 | 0.0 | 7.0 | 0.00 | 0.00 | 0.00 | 57 | 1008.8 |
| 20260904181100 | 82 | 231 | 1.0 | 7.0 | 0.00 | 0.00 | 0.00 | 61 | 1008.7 |
| 20260904180601 | 82 | 291 | 1.0 | 7.0 | 0.00 | 0.00 | 0.00 | 56 | 1008.7 |
| 20260904180104 | 82 | 180 | 2.0 | 8.0 | 0.00 | 0.00 | 0.00 | 56 | 1008.8 |
| 20260904175600 | 82 | 238 | 2.0 | 8.0 | 0.00 | 0.00 | 0.00 | 57 | 1008.8 |
| 20260904175103 | 82 | 90 | 1.0 | 6.0 | 0.00 | 0.00 | 0.00 | 59 | 1008.9 |
| 20260904174608 | 82 | 286 | 2.0 | 6.0 | 0.00 | 0.00 | 0.00 | 63 | 1008.8 |
| 20260904174100 | 81 | 203 | 1.0 | 9.0 | 0.00 | 0.00 | 0.00 | 57 | 1008.8 |
| 20260904173600 | 82 | 111 | 2.0 | 9.0 | 0.00 | 0.00 | 0.00 | 57 | 1008.9 |
| 20260904173107 | 81 | 298 | 2.0 | 6.0 | 0.00 | 0.00 | 0.00 | 61 | 1009.0 |
| 20260904172600 | 81 | 330 | 1.0 | 6.0 | 0.00 | 0.00 | 0.00 | 61 | 1009.1 |
| 20260904172101 | 81 | 283 | 2.0 | 5.0 | 0.00 | 0.00 | 0.00 | 61 | 1009.1 |
| 20260904171621 | 81 | 281 | 2.0 | 7.0 | 0.00 | 0.00 | 0.00 | 60 | 1009.1 |
| 20260904171059 | 81 | 292 | 2.0 | 7.0 | 0.00 | 0.00 | 0.00 | 63 | 1009.0 |
| 20260904170559 | 80 | 360 | 2.0 | 7.0 | 0.00 | 0.00 | 0.00 | 61 | 1009.1 |
| 20260904165601 | 78 | 210 | 1.0 | 3.0 | 0.00 | 0.00 | 0.00 | 64 | 1009.2 |
| 20260904165101 | 79 | 300 | 1.0 | 6.0 | 0.00 | 0.00 | 0.00 | 63 | 1009.3 |
| 20260904164618 | 81 | 0 | 1.0 | 6.0 | 0.00 | 0.00 | 0.00 | 62 | 1009.3 |
| 20260904164101 | 81 | 273 | 2.0 | 7.0 | 0.00 | 0.00 | 0.00 | 61 | 1009.3 |
| 20260904163600 | 80 | 20 | 1.0 | 7.0 | 0.00 | 0.00 | 0.00 | 64 | 1009.4 |
| 20260904163107 | 79 | 273 | 2.0 | 7.0 | 0.00 | 0.00 | 0.00 | 63 | 1009.3 |
| 20260904162600 | 79 | 239 | 1.0 | 6.0 | 0.00 | 0.00 | 0.00 | 65 | 1009.4 |
| 20260904162101 | 79 | 269 | 2.0 | 7.0 | 0.00 | 0.00 | 0.00 | 65 | 1009.4 |
| 20260904161615 | 79 | 325 | 2.0 | 7.0 | 0.00 | 0.00 | 0.00 | 63 | 1009.5 |
| 20260904161059 | 79 | 301 | 0.0 | 5.0 | 0.00 | 0.00 | 0.00 | 65 | 1009.6 |
| 20260904160601 | 78 | 103 | 1.0 | 5.0 | 0.00 | 0.00 | 0.00 | 65 | 1009.5 |
| 20260904160103 | 78 | 274 | 1.0 | 7.0 | 0.00 | 0.00 | 0.00 | 67 | 1009.6 |
| 20260904155601 | 78 | 315 | 2.0 | 7.0 | 0.00 | 0.00 | 0.00 | 67 | 1009.7 |
| 20260904155100 | 78 | 240 | 1.0 | 7.0 | 0.00 | 0.00 | 0.00 | 66 | 1009.7 |
| 20260904154606 | 78 | 287 | 1.0 | 5.0 | 0.00 | 0.00 | 0.00 | 69 | 1009.8 |
| 20260904154100 | 77 | 254 | 1.0 | 5.0 | 0.00 | 0.00 | 0.00 | 69 | 1009.9 |
| 20260904153600 | 77 | 221 | 1.0 | 7.0 | 0.00 | 0.00 | 0.00 | 71 | 1009.9 |
| 20260904153113 | 76 | 337 | 1.0 | 7.0 | 0.00 | 0.00 | 0.00 | 71 | 1009.9 |
| 20260904152559 | 77 | 298 | 0.0 | 3.0 | 0.00 | 0.00 | 0.00 | 69 | 1009.9 |
| 20260904152059 | 77 | 290 | 1.0 | 4.0 | 0.00 | 0.00 | 0.00 | 69 | 1009.9 |
| 20260904151606 | 77 | 95 | 0.0 | 4.0 | 0.00 | 0.00 | 0.00 | 71 | 1009.9 |
| 20260904151100 | 77 | 0 | 0.0 | 4.0 | 0.00 | 0.00 | 0.00 | 71 | 1010.0 |
| 20260904150602 | 77 | 0 | 1.0 | 8.0 | 0.00 | 0.00 | 0.00 | 72 | 1010.0 |
| 20260904150106 | 77 | 0 | 2.0 | 8.0 | 0.00 | 0.00 | 0.00 | 72 | 1010.0 |
| 20260904145559 | 76 | 227 | 1.0 | 4.0 | 0.00 | 0.00 | 0.00 | 72 | 1010.1 |
| 20260904145059 | 76 | 0 | 0.0 | 4.0 | 0.00 | 0.00 | 0.00 | 73 | 1010.1 |
| 20260904144606 | 75 | 0 | 0.0 | 6.0 | 0.00 | 0.00 | 0.00 | 74 | 1010.1 |
| 20260904144058 | 75 | 299 | 1.0 | 9.0 | 0.00 | 0.00 | 0.00 | 75 | 1010.2 |
| 20260904143559 | 76 | 343 | 3.0 | 9.0 | 0.00 | 0.00 | 0.00 | 78 | 1010.2 |
| 20260904143107 | 77 | 132 | 1.0 | 3.0 | 0.00 | 0.00 | 0.00 | 75 | 1010.2 |
| 20260904142559 | 76 | 82 | 1.0 | 3.0 | 0.00 | 0.00 | 0.00 | 77 | 1010.2 |
| 20260904142059 | 76 | 0 | 1.0 | 4.0 | 0.00 | 0.00 | 0.00 | 77 | 1010.2 |
| 20260904141604 | 76 | 17 | 1.0 | 4.0 | 0.00 | 0.00 | 0.00 | 79 | 1010.3 |
| 20260904141059 | 76 | 65 | 0.0 | 2.0 | 0.00 | 0.00 | 0.00 | 80 | 1010.3 |
| 20260904140558 | 75 | 104 | 0.0 | 4.0 | 0.00 | 0.00 | 0.00 | 80 | 1010.3 |
| 20260904135558 | 75 | 9 | 1.0 | 4.0 | 0.00 | 0.00 | 0.00 | 84 | 1010.3 |
| 20260904135059 | 74 | 111 | 0.0 | 5.0 | 0.00 | 0.00 | 0.00 | 85 | 1010.3 |
| 20260904134605 | 74 | 0 | 0.0 | 5.0 | 0.00 | 0.00 | 0.00 | 87 | 1010.3 |
| 20260904134058 | 73 | 0 | 2.0 | 4.0 | 0.00 | 0.00 | 0.00 | 88 | 1010.4 |
| 20260904133601 | 73 | 0 | 0.0 | 0.0 | 0.00 | 0.00 | 0.00 | 91 | 1010.4 |
| 20260904133116 | 72 | 0 | 0.0 | 0.0 | 0.00 | 0.00 | 0.00 | 92 | 1010.4 |
| 20260904132601 | 71 | 0 | 0.0 | 0.0 | 0.00 | 0.00 | 0.00 | 93 | 1010.3 |
| 20260904132101 | 71 | 0 | 0.0 | 0.0 | 0.00 | 0.00 | 0.00 | 94 | 1010.4 |
| 20260904131612 | 70 | 0 | 0.0 | 0.0 | 0.00 | 0.00 | 0.00 | 94 | 1010.4 |
| 20260904131100 | 70 | 0 | 0.0 | 0.0 | 0.00 | 0.00 | 0.00 | 95 | 1010.4 |
| 20260904130600 | 69 | 0 | 0.0 | 0.0 | 0.00 | 0.00 | 0.00 | 95 | 1010.5 |
| 20260904130108 | 69 | 0 | 0.0 | 0.0 | 0.00 | 0.00 | 0.00 | 96 | 1010.5 |
| 20260904125600 | 69 | 0 | 0.0 | 0.0 | 0.00 | 0.00 | 0.00 | 96 | 1010.4 |
| 20260904125100 | 68 | 0 | 0.0 | 0.0 | 0.00 | 0.00 | 0.00 | 96 | 1010.4 |
| 20260904124605 | 68 | 0 | 0.0 | 0.0 | 0.00 | 0.00 | 0.00 | 96 | 1010.3 |
| 20260904124100 | 68 | 0 | 0.0 | 0.0 | 0.00 | 0.00 | 0.00 | 96 | 1010.3 |
| 20260904123558 | 68 | 0 | 0.0 | 0.0 | 0.00 | 0.00 | 0.00 | 96 | 1010.4 |
| 20260904123103 | 67 | 0 | 0.0 | 0.0 | 0.00 | 0.00 | 0.00 | 96 | 1010.4 |
| 20260904122601 | 67 | 0 | 0.0 | 0.0 | 0.00 | 0.00 | 0.00 | 96 | 1010.6 |
| 20260904122101 | 67 | 0 | 0.0 | 0.0 | 0.00 | 0.00 | 0.00 | 96 | 1010.5 |
| 20260904121608 | 67 | 0 | 0.0 | 0.0 | 0.00 | 0.00 | 0.00 | 96 | 1010.5 |
| 20260904121100 | 66 | 0 | 0.0 | 0.0 | 0.00 | 0.00 | 0.00 | 96 | 1010.5 |
| 20260904120559 | 66 | 0 | 0.0 | 0.0 | 0.00 | 0.00 | 0.00 | 96 | 1010.5 |
| 20260904115600 | 65 | 0 | 0.0 | 0.0 | 0.00 | 0.04 | 0.00 | 96 | 1010.5 |
| 20260904115100 | 65 | 0 | 0.0 | 0.0 | 0.00 | 0.04 | 0.00 | 96 | 1010.5 |
| 20260904114606 | 65 | 0 | 0.0 | 0.0 | 0.00 | 0.04 | 0.00 | 96 | 1010.4 |
| 20260904114100 | 64 | 0 | 0.0 | 0.0 | 0.00 | 0.04 | 0.00 | 96 | 1010.5 |
| 20260904113600 | 64 | 0 | 0.0 | 0.0 | 0.00 | 0.04 | 0.00 | 96 | 1010.4 |
| 20260904113101 | 64 | 0 | 0.0 | 0.0 | 0.00 | 0.04 | 0.00 | 96 | 1010.5 |
| 20260904112600 | 64 | 0 | 0.0 | 0.0 | 0.00 | 0.04 | 0.00 | 96 | 1010.5 |
| 20260904112100 | 64 | 0 | 0.0 | 0.0 | 0.00 | 0.04 | 0.00 | 96 | 1010.6 |
| 20260904111601 | 64 | 0 | 0.0 | 0.0 | 0.00 | 0.04 | 0.00 | 96 | 1010.5 |
| 20260904111100 | 64 | 0 | 0.0 | 0.0 | 0.00 | 0.04 | 0.00 | 96 | 1010.4 |
| 20260904110600 | 63 | 0 | 0.0 | 0.0 | 0.00 | 0.04 | 0.00 | 96 | 1010.4 |
| 20260904110101 | 63 | 0 | 0.0 | 0.0 | 0.00 | 0.04 | 0.00 | 96 | 1010.5 |
| 20260904105600 | 63 | 0 | 0.0 | 0.0 | 0.00 | 0.07 | 0.00 | 96 | 1010.5 |
| 20260904105100 | 63 | 0 | 0.0 | 0.0 | 0.00 | 0.07 | 0.00 | 96 | 1010.4 |
| 20260904104617 | 63 | 0 | 0.0 | 0.0 | 0.00 | 0.07 | 0.00 | 96 | 1010.4 |
| 20260904104100 | 63 | 0 | 0.0 | 0.0 | 0.00 | 0.07 | 0.00 | 96 | 1010.4 |
| 20260904103559 | 63 | 0 | 0.0 | 0.0 | 0.00 | 0.07 | 0.00 | 95 | 1010.3 |
| 20260904103102 | 63 | 0 | 0.0 | 0.0 | 0.00 | 0.07 | 0.00 | 95 | 1010.3 |
| 20260904102557 | 63 | 0 | 0.0 | 0.0 | 0.00 | 0.07 | 0.00 | 96 | 1010.3 |
| 20260904102100 | 63 | 0 | 0.0 | 0.0 | 0.00 | 0.07 | 0.00 | 96 | 1010.2 |
| 20260904101605 | 64 | 0 | 0.0 | 0.0 | 0.00 | 0.07 | 0.00 | 95 | 1010.2 |
| 20260904101100 | 64 | 0 | 0.0 | 0.0 | 0.00 | 0.07 | 0.00 | 95 | 1010.2 |
| 20260904100600 | 64 | 0 | 0.0 | 0.0 | 0.00 | 0.07 | 0.00 | 95 | 1010.1 |
| 20260904100118 | 64 | 0 | 0.0 | 0.0 | 0.00 | 0.07 | 0.00 | 95 | 1010.1 |
| 20260904095600 | 64 | 0 | 0.0 | 0.0 | 0.00 | 0.26 | 0.00 | 95 | 1010.0 |
| 20260904095100 | 64 | 0 | 0.0 | 0.0 | 0.00 | 0.26 | 0.00 | 95 | 1010.0 |
| 20260904094617 | 64 | 0 | 0.0 | 0.0 | 0.00 | 0.26 | 0.00 | 96 | 1010.0 |
| 20260904094100 | 64 | 0 | 0.0 | 0.0 | 0.00 | 0.26 | 0.00 | 96 | 1010.2 |
| 20260904093606 | 64 | 0 | 0.0 | 0.0 | 0.00 | 0.26 | 0.00 | 96 | 1010.2 |
| 20260904093114 | 64 | 0 | 0.0 | 0.0 | 0.00 | 0.26 | 0.00 | 96 | 1010.2 |
| 20260904092600 | 64 | 0 | 0.0 | 0.0 | 0.00 | 0.26 | 0.00 | 96 | 1010.2 |
| 20260904092100 | 64 | 0 | 0.0 | 0.0 | 0.00 | 0.26 | 0.00 | 95 | 1010.2 |
| 20260904091606 | 64 | 0 | 0.0 | 0.0 | 0.00 | 0.26 | 0.00 | 95 | 1010.2 |
| 20260904091059 | 64 | 0 | 0.0 | 0.0 | 0.00 | 0.26 | 0.00 | 95 | 1010.1 |
| 20260904090600 | 64 | 0 | 0.0 | 0.0 | 0.00 | 0.26 | 0.00 | 95 | 1010.1 |
| 20260904090103 | 64 | 0 | 0.0 | 0.0 | 0.00 | 0.26 | 0.00 | 95 | 1010.1 |
| 20260904085600 | 64 | 0 | 0.0 | 0.0 | 0.00 | 0.30 | 0.00 | 95 | 1010.1 |
| 20260904085100 | 64 | 0 | 0.0 | 0.0 | 0.00 | 0.30 | 0.00 | 95 | 1010.0 |
| 20260904084603 | 64 | 0 | 0.0 | 0.0 | 0.00 | 0.30 | 0.00 | 95 | 1010.2 |
| 20260904084057 | 64 | 0 | 0.0 | 0.0 | 0.00 | 0.30 | 0.00 | 95 | 1010.2 |
| 20260904083600 | 64 | 0 | 0.0 | 0.0 | 0.00 | 0.30 | 0.00 | 95 | 1010.2 |
| 20260904083105 | 64 | 0 | 0.0 | 0.0 | 0.00 | 0.30 | 0.00 | 95 | 1010.1 |
| 20260904082600 | 64 | 0 | 0.0 | 0.0 | 0.00 | 0.30 | 0.00 | 95 | 1010.2 |
| 20260904082059 | 64 | 0 | 0.0 | 0.0 | 0.00 | 0.30 | 0.00 | 95 | 1010.4 |
| 20260904081607 | 64 | 0 | 0.0 | 0.0 | 0.00 | 0.30 | 0.00 | 95 | 1010.3 |
| 20260904081100 | 64 | 0 | 0.0 | 0.0 | 0.00 | 0.30 | 0.00 | 95 | 1010.3 |
| 20260904080600 | 64 | 0 | 0.0 | 0.0 | 0.00 | 0.30 | 0.00 | 95 | 1010.2 |
| 20260904080140 | 64 | 0 | 0.0 | 0.0 | 0.00 | 0.30 | 0.00 | 95 | 1010.2 |
| 20260904075602 | 64 | 0 | 0.0 | 0.0 | 0.00 | 0.30 | 0.00 | 95 | 1010.2 |
| 20260904075100 | 64 | 0 | 0.0 | 0.0 | 0.00 | 0.30 | 0.00 | 95 | 1010.2 |
| 20260904074610 | 64 | 0 | 0.0 | 0.0 | 0.00 | 0.30 | 0.00 | 95 | 1010.3 |
| 20260904074100 | 64 | 0 | 0.0 | 0.0 | 0.00 | 0.30 | 0.00 | 95 | 1010.4 |
| 20260904073600 | 64 | 0 | 0.0 | 0.0 | 0.00 | 0.30 | 0.00 | 95 | 1010.6 |
| 20260904073103 | 64 | 0 | 0.0 | 0.0 | 0.00 | 0.30 | 0.00 | 95 | 1010.6 |
| 20260904072600 | 64 | 0 | 0.0 | 0.0 | 0.00 | 0.30 | 0.00 | 95 | 1010.6 |
| 20260904072103 | 64 | 0 | 0.0 | 0.0 | 0.00 | 0.30 | 0.00 | 95 | 1010.7 |
| 20260904071607 | 64 | 0 | 0.0 | 0.0 | 0.00 | 0.30 | 0.00 | 95 | 1010.8 |
| 20260904071100 | 64 | 0 | 0.0 | 0.0 | 0.00 | 0.30 | 0.00 | 95 | 1010.8 |
| 20260904070600 | 64 | 0 | 0.0 | 0.0 | 0.00 | 0.30 | 0.00 | 95 | 1010.8 |
| 20260904065601 | 64 | 0 | 0.0 | 0.0 | 0.00 | 0.30 | 0.00 | 95 | 1010.9 |
| 20260904065056 | 64 | 0 | 0.0 | 0.0 | 0.00 | 0.30 | 0.00 | 95 | 1011.0 |
| 20260904064608 | 64 | 0 | 0.0 | 0.0 | 0.00 | 0.30 | 0.00 | 95 | 1011.0 |
| 20260904064059 | 64 | 0 | 0.0 | 0.0 | 0.00 | 0.30 | 0.00 | 95 | 1011.0 |
| 20260904063556 | 64 | 0 | 0.0 | 0.0 | 0.00 | 0.30 | 0.00 | 95 | 1010.9 |
| 20260904063105 | 64 | 0 | 0.0 | 1.0 | 0.00 | 0.30 | 0.00 | 95 | 1010.9 |
| 20260904062601 | 64 | 0 | 0.0 | 1.0 | 0.00 | 0.30 | 0.00 | 95 | 1011.0 |
| 20260904062101 | 64 | 0 | 0.0 | 1.0 | 0.00 | 0.30 | 0.00 | 95 | 1011.1 |
| 20260904061601 | 64 | 0 | 0.0 | 0.0 | 0.00 | 0.30 | 0.00 | 95 | 1011.0 |
| 20260904061100 | 64 | 0 | 0.0 | 0.0 | 0.00 | 0.30 | 0.00 | 95 | 1011.0 |
| 20260904060600 | 64 | 0 | 0.0 | 0.0 | 0.00 | 0.30 | 0.00 | 95 | 1011.0 |
| 20260904060122 | 64 | 0 | 0.0 | 0.0 | 0.00 | 0.30 | 0.00 | 95 | 1011.1 |
| 20260904055559 | 65 | 0 | 0.0 | 0.0 | 0.00 | 0.30 | 0.00 | 95 | 1011.2 |
| 20260904055059 | 65 | 0 | 0.0 | 0.0 | 0.00 | 0.30 | 0.00 | 95 | 1011.2 |
| 20260904054602 | 65 | 0 | 0.0 | 0.0 | 0.00 | 0.30 | 0.00 | 95 | 1011.0 |
| 20260904054059 | 65 | 0 | 0.0 | 0.0 | 0.00 | 0.30 | 0.00 | 95 | 1011.1 |
| 20260904053600 | 65 | 0 | 0.0 | 0.0 | 0.00 | 0.30 | 0.00 | 95 | 1011.2 |
| 20260904053149 | 65 | 0 | 0.0 | 0.0 | 0.00 | 0.30 | 0.00 | 95 | 1011.2 |
| 20260904052600 | 65 | 0 | 0.0 | 0.0 | 0.00 | 0.30 | 0.00 | 95 | 1011.2 |
| 20260904052100 | 65 | 0 | 0.0 | 0.0 | 0.00 | 0.30 | 0.00 | 95 | 1011.2 |
| 20260904051614 | 65 | 0 | 0.0 | 0.0 | 0.00 | 0.30 | 0.00 | 95 | 1011.3 |
| 20260904051101 | 65 | 0 | 0.0 | 0.0 | 0.00 | 0.30 | 0.00 | 95 | 1011.5 |
| 20260904050559 | 65 | 0 | 0.0 | 1.0 | 0.00 | 0.30 | 0.00 | 95 | 1011.5 |
| 20260904050109 | 65 | 0 | 0.0 | 1.0 | 0.00 | 0.30 | 0.00 | 95 | 1011.5 |
| 20260904045602 | 65 | 0 | 0.0 | 0.0 | 0.00 | 0.30 | 0.00 | 95 | 1011.6 |
| 20260904045059 | 65 | 0 | 0.0 | 0.0 | 0.00 | 0.30 | 0.00 | 95 | 1011.7 |
| 20260904044611 | 65 | 0 | 0.0 | 0.0 | 0.00 | 0.30 | 0.00 | 95 | 1011.8 |
| 20260904044058 | 66 | 0 | 0.0 | 0.0 | 0.00 | 0.30 | 0.00 | 94 | 1011.8 |
| 20260904043559 | 66 | 0 | 0.0 | 0.0 | 0.00 | 0.30 | 0.00 | 95 | 1011.9 |
| 20260904043114 | 66 | 0 | 0.0 | 0.0 | 0.00 | 0.30 | 0.00 | 95 | 1011.9 |
| 20260904042559 | 66 | 0 | 0.0 | 0.0 | 0.00 | 0.30 | 0.00 | 95 | 1011.9 |
| 20260904042059 | 66 | 0 | 0.0 | 0.0 | 0.00 | 0.30 | 0.00 | 95 | 1012.0 |
| 20260904041607 | 66 | 0 | 0.0 | 0.0 | 0.00 | 0.30 | 0.00 | 95 | 1011.9 |
| 20260904041059 | 66 | 0 | 0.0 | 0.0 | 0.00 | 0.30 | 0.00 | 94 | 1011.9 |
| 20260904040559 | 66 | 0 | 0.0 | 0.0 | 0.00 | 0.30 | 0.00 | 94 | 1011.9 |
| 20260904040109 | 66 | 0 | 0.0 | 0.0 | 0.00 | 0.30 | 0.00 | 94 | 1011.9 |
| 20260904035559 | 66 | 0 | 0.0 | 0.0 | 0.00 | 0.30 | 0.30 | 94 | 1011.9 |
| 20260904035059 | 66 | 0 | 0.0 | 0.0 | 0.00 | 0.30 | 0.30 | 94 | 1011.9 |
| 20260904034601 | 66 | 0 | 0.0 | 0.0 | 0.00 | 0.30 | 0.30 | 95 | 1012.0 |
| 20260904034102 | 66 | 0 | 0.0 | 0.0 | 0.00 | 0.30 | 0.30 | 94 | 1012.1 |
| 20260904033600 | 66 | 0 | 0.0 | 0.0 | 0.00 | 0.30 | 0.30 | 94 | 1012.1 |
| 20260904033109 | 67 | 0 | 0.0 | 0.0 | 0.00 | 0.30 | 0.30 | 94 | 1012.2 |
| 20260904032559 | 67 | 0 | 0.0 | 1.0 | 0.00 | 0.30 | 0.30 | 94 | 1012.1 |
| 20260904032101 | 67 | 0 | 0.0 | 1.0 | 0.00 | 0.30 | 0.30 | 94 | 1012.2 |
| 20260904031608 | 67 | 0 | 0.0 | 0.0 | 0.00 | 0.30 | 0.30 | 94 | 1012.1 |
| 20260904031100 | 67 | 0 | 0.0 | 0.0 | 0.00 | 0.30 | 0.30 | 94 | 1012.0 |
| 20260904030600 | 67 | 0 | 0.0 | 0.0 | 0.00 | 0.30 | 0.30 | 94 | 1012.1 |
| 20260904030103 | 67 | 0 | 0.0 | 0.0 | 0.00 | 0.30 | 0.30 | 94 | 1012.1 |
| 20260904025600 | 67 | 0 | 0.0 | 0.0 | 0.00 | 0.30 | 0.30 | 94 | 1012.1 |
| 20260904025103 | 67 | 0 | 0.0 | 0.0 | 0.00 | 0.30 | 0.30 | 94 | 1012.1 |
| 20260904024623 | 67 | 0 | 0.0 | 0.0 | 0.00 | 0.30 | 0.30 | 94 | 1012.2 |
| 20260904024059 | 67 | 0 | 0.0 | 0.0 | 0.00 | 0.30 | 0.30 | 94 | 1012.2 |
| 20260904023559 | 67 | 0 | 0.0 | 0.0 | 0.00 | 0.30 | 0.30 | 94 | 1012.4 |
| 20260904023107 | 67 | 0 | 0.0 | 0.0 | 0.00 | 0.30 | 0.30 | 94 | 1012.4 |
| 20260904022559 | 68 | 0 | 0.0 | 0.0 | 0.00 | 0.30 | 0.30 | 94 | 1012.4 |
| 20260904022059 | 68 | 0 | 0.0 | 0.0 | 0.00 | 0.30 | 0.30 | 94 | 1012.6 |
| 20260904021603 | 68 | 0 | 0.0 | 2.0 | 0.00 | 0.30 | 0.30 | 94 | 1012.6 |
| 20260904021104 | 68 | 0 | 0.0 | 2.0 | 0.00 | 0.30 | 0.30 | 94 | 1012.5 |
| 20260904020559 | 68 | 0 | 0.0 | 2.0 | 0.00 | 0.30 | 0.30 | 94 | 1012.6 |
| 20260904015559 | 68 | 0 | 0.0 | 2.0 | 0.00 | 0.30 | 0.30 | 94 | 1012.6 |
| 20260904015105 | 68 | 80 | 0.0 | 1.0 | 0.00 | 0.30 | 0.30 | 94 | 1012.5 |
| 20260904014612 | 68 | 0 | 0.0 | 1.0 | 0.00 | 0.30 | 0.30 | 94 | 1012.7 |
| 20260904014059 | 68 | 0 | 0.0 | 0.0 | 0.00 | 0.30 | 0.30 | 94 | 1012.7 |
| 20260904013602 | 68 | 0 | 0.0 | 0.0 | 0.00 | 0.30 | 0.30 | 94 | 1012.8 |
| 20260904013101 | 69 | 0 | 0.0 | 0.0 | 0.00 | 0.30 | 0.30 | 94 | 1013.0 |
| 20260904012602 | 69 | 0 | 0.0 | 0.0 | 0.00 | 0.30 | 0.30 | 94 | 1013.0 |
| 20260904012100 | 69 | 0 | 0.0 | 0.0 | 0.00 | 0.30 | 0.30 | 94 | 1013.1 |
| 20260904011603 | 69 | 0 | 0.0 | 0.0 | 0.00 | 0.30 | 0.30 | 93 | 1013.1 |
| 20260904011059 | 69 | 0 | 0.0 | 0.0 | 0.00 | 0.30 | 0.30 | 94 | 1013.2 |
| 20260904010559 | 69 | 0 | 0.0 | 0.0 | 0.00 | 0.30 | 0.30 | 94 | 1013.1 |
| 20260904010107 | 69 | 0 | 0.0 | 0.0 | 0.00 | 0.30 | 0.30 | 93 | 1013.1 |
| 20260904005559 | 69 | 0 | 0.0 | 0.0 | 0.00 | 0.30 | 0.30 | 93 | 1013.2 |
| 20260904005059 | 69 | 0 | 0.0 | 0.0 | 0.00 | 0.30 | 0.30 | 93 | 1013.1 |
| 20260904004604 | 69 | 0 | 0.0 | 0.0 | 0.00 | 0.30 | 0.30 | 93 | 1013.0 |
| 20260904004100 | 69 | 0 | 0.0 | 0.0 | 0.00 | 0.30 | 0.30 | 93 | 1012.9 |
| 20260904003559 | 69 | 0 | 0.0 | 0.0 | 0.00 | 0.30 | 0.30 | 93 | 1012.8 |
| 20260904003059 | 69 | 0 | 0.0 | 0.0 | 0.00 | 0.30 | 0.30 | 93 | 1012.7 |
| 20260904002559 | 69 | 0 | 0.0 | 0.0 | 0.00 | 0.30 | 0.30 | 93 | 1012.7 |
| 20260904002100 | 70 | 0 | 0.0 | 1.0 | 0.00 | 0.30 | 0.30 | 93 | 1012.7 |
| 20260904001613 | 70 | 0 | 0.0 | 1.0 | 0.00 | 0.30 | 0.30 | 93 | 1012.6 |
| 20260904001100 | 70 | 0 | 0.0 | 0.0 | 0.00 | 0.30 | 0.30 | 92 | 1012.5 |
| 20260904000556 | 70 | 0 | 0.0 | 0.0 | 0.00 | 0.30 | 0.30 | 92 | 1012.3 |
| 20260904000117 | 70 | 0 | 0.0 | 0.0 | 0.00 | 0.30 | 0.30 | 92 | 1012.4 |
| 20260903235559 | 70 | 0 | 0.0 | 0.0 | 0.00 | 0.30 | 0.30 | 92 | 1012.4 |
| 20260903235059 | 70 | 0 | 0.0 | 0.0 | 0.00 | 0.30 | 0.30 | 92 | 1012.5 |
| 20260903234606 | 70 | 0 | 0.0 | 0.0 | 0.00 | 0.30 | 0.30 | 92 | 1012.5 |
| 20260903234100 | 70 | 0 | 0.0 | 0.0 | 0.00 | 0.30 | 0.30 | 92 | 1012.5 |
| 20260903233600 | 71 | 0 | 0.0 | 1.0 | 0.00 | 0.30 | 0.30 | 91 | 1012.3 |
| 20260903233121 | 71 | 0 | 0.0 | 1.0 | 0.00 | 0.30 | 0.30 | 91 | 1012.4 |
| 20260903232600 | 71 | 0 | 0.0 | 3.0 | 0.00 | 0.30 | 0.30 | 91 | 1012.6 |
| 20260903232100 | 71 | 0 | 0.0 | 4.0 | 0.00 | 0.30 | 0.30 | 90 | 1012.4 |
| 20260903231602 | 71 | 80 | 2.0 | 4.0 | 0.00 | 0.30 | 0.30 | 90 | 1012.3 |
| 20260903231059 | 71 | 73 | 1.0 | 3.0 | 0.00 | 0.30 | 0.30 | 90 | 1012.2 |
| 20260903230559 | 72 | 69 | 0.0 | 2.0 | 0.00 | 0.30 | 0.30 | 90 | 1012.1 |
| 20260903230114 | 72 | 0 | 0.0 | 2.0 | 0.00 | 0.30 | 0.30 | 89 | 1012.3 |
| 20260903225600 | 72 | 0 | 0.0 | 4.0 | 0.00 | 0.30 | 0.30 | 89 | 1012.3 |
| 20260903225100 | 73 | 0 | 1.0 | 4.0 | 0.00 | 0.30 | 0.30 | 88 | 1012.3 |
| 20260903224630 | 73 | 69 | 2.0 | 3.0 | 0.00 | 0.30 | 0.30 | 88 | 1012.2 |
| 20260903224100 | 73 | 66 | 1.0 | 3.0 | 0.00 | 0.30 | 0.30 | 88 | 1012.4 |
| 20260903223559 | 73 | 63 | 0.0 | 2.0 | 0.00 | 0.30 | 0.30 | 88 | 1012.2 |
| 20260903223135 | 73 | 74 | 0.0 | 2.0 | 0.00 | 0.30 | 0.30 | 89 | 1012.4 |
| 20260903222601 | 73 | 74 | 0.0 | 3.0 | 0.00 | 0.30 | 0.30 | 88 | 1012.5 |
| 20260903222100 | 73 | 0 | 0.0 | 3.0 | 0.00 | 0.30 | 0.30 | 88 | 1012.6 |
| 20260903221607 | 73 | 74 | 0.0 | 2.0 | 0.00 | 0.30 | 0.30 | 87 | 1012.7 |
| 20260903221103 | 74 | 0 | 0.0 | 3.0 | 0.00 | 0.30 | 0.30 | 86 | 1012.5 |
| 20260903220559 | 74 | 0 | 0.0 | 4.0 | 0.00 | 0.30 | 0.30 | 86 | 1012.4 |
| 20260903220104 | 74 | 82 | 2.0 | 4.0 | 0.00 | 0.30 | 0.30 | 85 | 1012.5 |
| 20260903215600 | 74 | 70 | 1.0 | 4.0 | 0.00 | 0.30 | 0.30 | 85 | 1012.4 |
| 20260903215059 | 74 | 82 | 1.0 | 4.0 | 0.00 | 0.30 | 0.30 | 85 | 1012.3 |
| 20260903214606 | 74 | 71 | 1.0 | 7.0 | 0.00 | 0.30 | 0.30 | 85 | 1012.2 |
| 20260903214101 | 74 | 66 | 4.0 | 7.0 | 0.00 | 0.30 | 0.30 | 84 | 1012.2 |
| 20260903213600 | 74 | 78 | 1.0 | 5.0 | 0.00 | 0.30 | 0.30 | 85 | 1012.1 |
| 20260903213114 | 74 | 109 | 3.0 | 5.0 | 0.00 | 0.30 | 0.30 | 84 | 1012.1 |
| 20260903212600 | 75 | 78 | 1.0 | 5.0 | 0.00 | 0.30 | 0.30 | 85 | 1012.2 |
| 20260903212100 | 75 | 74 | 3.0 | 5.0 | 0.00 | 0.30 | 0.30 | 84 | 1012.2 |
| 20260903211602 | 75 | 86 | 2.0 | 4.0 | 0.00 | 0.30 | 0.30 | 84 | 1012.4 |
| 20260903211059 | 75 | 71 | 2.0 | 5.0 | 0.00 | 0.30 | 0.30 | 85 | 1012.4 |
| 20260903210559 | 75 | 62 | 2.0 | 5.0 | 0.00 | 0.30 | 0.30 | 85 | 1012.4 |
| 20260903210144 | 74 | 67 | 3.0 | 5.0 | 0.00 | 0.30 | 0.30 | 85 | 1012.4 |
| 20260903205600 | 74 | 72 | 4.0 | 5.0 | 0.00 | 0.30 | 0.30 | 85 | 1012.3 |
| 20260903205100 | 75 | 73 | 2.0 | 5.0 | 0.00 | 0.30 | 0.30 | 84 | 1012.3 |
| 20260903204602 | 75 | 78 | 2.0 | 5.0 | 0.00 | 0.30 | 0.30 | 84 | 1012.4 |
| 20260903204103 | 75 | 88 | 2.0 | 5.0 | 0.00 | 0.30 | 0.30 | 85 | 1012.5 |
| 20260903203601 | 75 | 71 | 2.0 | 5.0 | 0.00 | 0.30 | 0.30 | 85 | 1012.4 |
| 20260903203103 | 75 | 71 | 1.0 | 5.0 | 0.00 | 0.30 | 0.30 | 85 | 1012.5 |
| 20260903202601 | 75 | 0 | 0.0 | 3.0 | 0.00 | 0.30 | 0.30 | 85 | 1012.7 |
| 20260903202101 | 75 | 0 | 1.0 | 4.0 | 0.00 | 0.30 | 0.30 | 84 | 1012.5 |
| 20260903201601 | 75 | 0 | 2.0 | 6.0 | 0.00 | 0.30 | 0.30 | 84 | 1012.5 |
| 20260903201101 | 76 | 65 | 1.0 | 6.0 | 0.00 | 0.30 | 0.30 | 84 | 1012.5 |
| 20260903200600 | 76 | 82 | 1.0 | 3.0 | 0.00 | 0.30 | 0.30 | 85 | 1012.4 |
| 20260903200106 | 76 | 101 | 0.0 | 3.0 | 0.00 | 0.30 | 0.30 | 85 | 1012.5 |
| 20260903195601 | 76 | 128 | 0.0 | 3.0 | 0.00 | 0.30 | 0.30 | 84 | 1012.6 |
| 20260903195100 | 76 | 0 | 0.0 | 3.0 | 0.00 | 0.30 | 0.30 | 84 | 1012.5 |
| 20260903194602 | 76 | 5 | 1.0 | 4.0 | 0.00 | 0.30 | 0.30 | 84 | 1012.5 |
| 20260903194102 | 76 | 0 | 1.0 | 6.0 | 0.00 | 0.30 | 0.30 | 83 | 1012.6 |
| 20260903193601 | 76 | 67 | 2.0 | 6.0 | 0.00 | 0.30 | 0.30 | 83 | 1012.7 |
| 20260903193106 | 76 | 128 | 2.0 | 6.0 | 0.00 | 0.30 | 0.30 | 82 | 1012.8 |
| 20260903192601 | 76 | 90 | 1.0 | 5.0 | 0.00 | 0.30 | 0.30 | 82 | 1012.9 |
| 20260903192100 | 76 | 37 | 0.0 | 3.0 | 0.00 | 0.30 | 0.30 | 82 | 1013.0 |
| 20260903191607 | 77 | 107 | 0.0 | 3.0 | 0.00 | 0.30 | 0.30 | 82 | 1012.9 |
| 20260903191101 | 77 | 108 | 0.0 | 6.0 | 0.00 | 0.30 | 0.30 | 81 | 1012.9 |
| 20260903190602 | 77 | 0 | 1.0 | 6.0 | 0.00 | 0.30 | 0.30 | 80 | 1012.9 |
| 20260903190107 | 77 | 55 | 1.0 | 6.0 | 0.00 | 0.30 | 0.30 | 80 | 1013.0 |
| 20260903185600 | 77 | 59 | 0.0 | 4.0 | 0.00 | 0.30 | 0.30 | 80 | 1013.0 |
| 20260903185103 | 77 | 355 | 1.0 | 4.0 | 0.00 | 0.30 | 0.30 | 80 | 1013.1 |
| 20260903184606 | 78 | 0 | 0.0 | 2.0 | 0.00 | 0.30 | 0.30 | 83 | 1013.1 |
| 20260903184101 | 78 | 0 | 0.0 | 2.0 | 0.00 | 0.30 | 0.30 | 81 | 1013.0 |
| 20260903183600 | 78 | 0 | 0.0 | 2.0 | 0.00 | 0.30 | 0.30 | 80 | 1013.2 |
| 20260903183121 | 78 | 310 | 0.0 | 2.0 | 0.00 | 0.30 | 0.30 | 81 | 1013.2 |
| 20260903182602 | 78 | 0 | 0.0 | 3.0 | 0.00 | 0.30 | 0.30 | 79 | 1013.2 |
| 20260903182059 | 77 | 317 | 0.0 | 3.0 | 0.00 | 0.30 | 0.30 | 81 | 1013.2 |